Time,TemperatureF,DewpointF,PressureIn,WindDirection,WindDirectionDegrees,WindSpeedMPH,WindSpeedGustMPH,Humidity,HourlyPrecipIn,Conditions,Clouds,dailyrainin,SoftwareType,DateUTC
2013-07-31 00:10:00,55.7,53.0,30.16,NE,50,0.0,4.0,90,0.00,,,0.00,weatherlink.com 1.10,2013-07-31 09:10:00,
2013-07-31 00:25:00,55.3,53.0,30.16,NE,50,1.0,1.0,90,0.00,,,0.00,weatherlink.com 1.10,2013-07-31 09:25:00,
2013-07-31 00:40:00,55.5,53.0,30.16,SSE,148,4.0,5.0,90,0.00,,,0.00,weatherlink.com 1.10,2013-07-31 09:40:00,
2013-07-31 00:55:00,56.3,54.0,30.16,SE,129,0.0,7.0,90,0.00,,,0.00,weatherlink.com 1.10,2013-07-31 09:55:00,
2013-07-31 01:10:00,56.6,54.0,30.16,ESE,110,1.0,4.0,89,0.00,,,0.00,weatherlink.com 1.10,2013-07-31 10:10:00,
2013-07-31 01:25:00,56.7,53.0,30.16,ESE,102,6.0,8.0,88,0.00,,,0.00,weatherlink.com 1.10,2013-07-31 10:25:00,
2013-07-31 01:40:00,57.1,54.0,30.16,SE,134,5.0,8.0,88,0.00,,,0.00,weatherlink.com 1.10,2013-07-31 10:40:00,
2013-07-31 01:55:00,57.5,54.0,30.16,ENE,74,1.0,9.0,87,0.00,,,0.00,weatherlink.com 1.10,2013-07-31 10:55:00,
2013-07-31 02:10:00,58.0,54.0,30.16,East,100,4.0,11.0,86,0.00,,,0.00,weatherlink.com 1.10,2013-07-31 11:10:00,
2013-07-31 02:25:00,58.5,54.0,30.16,ESE,115,5.0,9.0,85,0.00,,,0.00,weatherlink.com 1.10,2013-07-31 11:25:00,
2013-07-31 02:40:00,58.6,54.0,30.15,East,84,1.0,10.0,84,0.00,,,0.00,weatherlink.com 1.10,2013-07-31 11:40:00,
2013-07-31 02:55:00,58.5,54.0,30.15,SE,136,7.0,10.0,84,0.00,,,0.00,weatherlink.com 1.10,2013-07-31 11:55:00,
2013-07-31 03:10:00,58.4,54.0,30.15,ESE,115,5.0,10.0,85,0.00,,,0.00,weatherlink.com 1.10,2013-07-31 12:10:00,
2013-07-31 03:25:00,58.3,54.0,30.15,ESE,108,6.0,12.0,84,0.00,,,0.00,weatherlink.com 1.10,2013-07-31 12:25:00,
2013-07-31 03:40:00,58.1,54.0,30.15,SE,138,9.0,10.0,85,0.00,,,0.00,weatherlink.com 1.10,2013-07-31 12:40:00,
2013-07-31 03:55:00,57.9,54.0,30.15,East,94,4.0,10.0,85,0.00,,,0.00,weatherlink.com 1.10,2013-07-31 12:55:00,
2013-07-31 04:10:00,58.0,54.0,30.15,ENE,67,1.0,5.0,85,0.00,,,0.00,weatherlink.com 1.10,2013-07-31 13:10:00,
2013-07-31 04:25:00,57.9,54.0,30.15,ESE,113,3.0,7.0,85,0.00,,,0.00,weatherlink.com 1.10,2013-07-31 13:25:00,
2013-07-31 04:40:00,57.8,53.0,30.15,ESE,114,0.0,5.0,85,0.00,,,0.00,weatherlink.com 1.10,2013-07-31 13:40:00,
2013-07-31 04:55:00,57.7,53.0,30.15,ESE,110,1.0,5.0,85,0.00,,,0.00,weatherlink.com 1.10,2013-07-31 13:55:00,
2013-07-31 05:10:00,57.7,53.0,30.15,East,101,0.0,7.0,85,0.00,,,0.00,weatherlink.com 1.10,2013-07-31 14:10:00,
2013-07-31 05:25:00,57.9,54.0,30.15,ESE,111,6.0,10.0,85,0.00,,,0.00,weatherlink.com 1.10,2013-07-31 14:25:00,
2013-07-31 05:40:00,57.6,53.0,30.15,ENE,59,1.0,12.0,84,0.00,,,0.00,weatherlink.com 1.10,2013-07-31 14:40:00,
2013-07-31 05:55:00,57.2,53.0,30.15,ESE,118,7.0,13.0,85,0.00,,,0.00,weatherlink.com 1.10,2013-07-31 14:55:00,
2013-07-31 06:11:00,56.9,53.0,30.16,East,101,1.0,11.0,85,0.00,,,0.00,weatherlink.com 1.10,2013-07-31 15:11:00,
2013-07-31 06:26:00,56.4,52.0,30.16,ENE,62,4.0,16.0,85,0.00,,,0.00,weatherlink.com 1.10,2013-07-31 15:26:00,
2013-07-31 06:41:00,56.1,52.0,30.16,SE,133,4.0,14.0,86,0.00,,,0.00,weatherlink.com 1.10,2013-07-31 15:41:00,
2013-07-31 06:56:00,56.3,52.0,30.16,ESE,109,6.0,14.0,86,0.00,,,0.00,weatherlink.com 1.10,2013-07-31 15:56:00,
2013-07-31 07:11:00,56.4,52.0,30.16,SE,136,4.0,12.0,86,0.00,,,0.00,weatherlink.com 1.10,2013-07-31 16:11:00,
2013-07-31 07:26:00,56.7,52.0,30.16,East,100,3.0,10.0,85,0.00,,,0.00,weatherlink.com 1.10,2013-07-31 16:26:00,
2013-07-31 07:41:00,57.2,53.0,30.16,East,90,7.0,11.0,85,0.00,,,0.00,weatherlink.com 1.10,2013-07-31 16:41:00,
2013-07-31 07:56:00,57.6,53.0,30.16,East,94,6.0,10.0,84,0.00,,,0.00,weatherlink.com 1.10,2013-07-31 16:56:00,
2013-07-31 08:11:00,58.4,53.0,30.17,ESE,118,7.0,11.0,82,0.00,,,0.00,weatherlink.com 1.10,2013-07-31 17:11:00,
2013-07-31 08:26:00,59.1,53.0,30.17,ESE,113,4.0,11.0,81,0.00,,,0.00,weatherlink.com 1.10,2013-07-31 17:26:00,
2013-07-31 08:41:00,60.1,54.0,30.16,East,94,4.0,9.0,79,0.00,,,0.00,weatherlink.com 1.10,2013-07-31 17:41:00,
2013-07-31 08:56:00,60.7,54.0,30.16,SE,126,2.0,7.0,78,0.00,,,0.00,weatherlink.com 1.10,2013-07-31 17:56:00,
2013-07-31 09:11:00,61.5,54.0,30.16,SSE,160,0.0,8.0,77,0.00,,,0.00,weatherlink.com 1.10,2013-07-31 18:11:00,
2013-07-31 09:26:00,61.8,53.0,30.16,ESE,102,5.0,11.0,74,0.00,,,0.00,weatherlink.com 1.10,2013-07-31 18:26:00,
2013-07-31 09:41:00,62.2,54.0,30.16,ENE,76,6.0,9.0,75,0.00,,,0.00,weatherlink.com 1.10,2013-07-31 18:41:00,
2013-07-31 09:56:00,62.3,54.0,30.17,East,90,5.0,11.0,74,0.00,,,0.00,weatherlink.com 1.10,2013-07-31 18:56:00,
2013-07-31 10:12:00,62.2,54.0,30.16,NE,36,6.0,13.0,74,0.00,,,0.00,weatherlink.com 1.10,2013-07-31 19:12:00,
2013-07-31 10:26:00,62.3,54.0,30.16,SE,128,8.0,13.0,74,0.00,,,0.00,weatherlink.com 1.10,2013-07-31 19:26:00,
2013-07-31 10:42:00,62.5,54.0,30.16,East,101,11.0,13.0,74,0.00,,,0.00,weatherlink.com 1.10,2013-07-31 19:42:00,
2013-07-31 10:57:00,62.6,53.0,30.16,ESE,112,8.0,15.0,72,0.00,,,0.00,weatherlink.com 1.10,2013-07-31 19:57:00,
2013-07-31 11:12:00,62.7,54.0,30.16,East,82,7.0,18.0,72,0.00,,,0.00,weatherlink.com 1.10,2013-07-31 20:12:00,
2013-07-31 11:27:00,62.9,54.0,30.16,East,98,8.0,21.0,73,0.00,,,0.00,weatherlink.com 1.10,2013-07-31 20:27:00,
2013-07-31 11:42:00,63.5,54.0,30.16,NE,56,7.0,18.0,72,0.00,,,0.00,weatherlink.com 1.10,2013-07-31 20:42:00,
2013-07-31 11:57:00,60.0,53.0,30.16,SW,222,3.0,12.0,78,0.00,,,0.00,weatherlink.com 1.10,2013-07-31 20:57:00,
2013-07-31 12:12:00,60.3,53.0,30.16,South,180,5.0,13.0,78,0.00,,,0.00,weatherlink.com 1.10,2013-07-31 21:12:00,
2013-07-31 12:27:00,63.1,55.0,30.16,East,94,6.0,14.0,75,0.00,,,0.00,weatherlink.com 1.10,2013-07-31 21:27:00,
2013-07-31 12:42:00,64.0,55.0,30.15,SE,146,15.0,20.0,72,0.00,,,0.00,weatherlink.com 1.10,2013-07-31 21:42:00,
2013-07-31 12:57:00,64.0,54.0,30.15,East,95,7.0,18.0,71,0.00,,,0.00,weatherlink.com 1.10,2013-07-31 21:57:00,
2013-07-31 13:27:00,63.3,55.0,30.15,SE,142,13.0,18.0,73,0.00,,,0.00,weatherlink.com 1.10,2013-07-31 22:27:00,
2013-07-31 13:42:00,63.0,54.0,30.15,ESE,115,7.0,21.0,73,0.00,,,0.00,weatherlink.com 1.10,2013-07-31 22:42:00,
2013-07-31 13:57:00,63.8,55.0,30.16,SE,137,9.0,15.0,72,0.00,,,0.00,weatherlink.com 1.10,2013-07-31 22:57:00,
2013-07-31 14:12:00,63.8,54.0,30.16,SE,140,7.0,19.0,71,0.00,,,0.00,weatherlink.com 1.10,2013-07-31 23:12:00,
2013-07-31 14:27:00,63.0,54.0,30.15,SE,128,8.0,25.0,73,0.00,,,0.00,weatherlink.com 1.10,2013-07-31 23:27:00,
2013-07-31 14:42:00,62.8,54.0,30.15,SE,127,8.0,19.0,73,0.00,,,0.00,weatherlink.com 1.10,2013-07-31 23:42:00,
2013-07-31 14:57:00,63.9,54.0,30.14,ESE,117,11.0,20.0,71,0.00,,,0.00,weatherlink.com 1.10,2013-07-31 23:57:00,
2013-07-31 15:12:00,63.9,54.0,30.14,ENE,77,4.0,18.0,71,0.00,,,0.00,weatherlink.com 1.10,2013-08-01 00:12:00,
2013-07-31 15:27:00,64.2,55.0,30.14,SSE,148,11.0,21.0,71,0.00,,,0.00,weatherlink.com 1.10,2013-08-01 00:27:00,
2013-07-31 15:42:00,64.3,55.0,30.14,SSE,168,10.0,19.0,71,0.00,,,0.00,weatherlink.com 1.10,2013-08-01 00:42:00,
2013-07-31 15:57:00,63.9,55.0,30.14,SE,146,11.0,16.0,72,0.00,,,0.00,weatherlink.com 1.10,2013-08-01 00:57:00,
2013-07-31 16:12:00,63.5,55.0,30.14,SE,143,9.0,21.0,73,0.00,,,0.00,weatherlink.com 1.10,2013-08-01 01:12:00,
2013-07-31 16:27:00,63.6,55.0,30.13,SE,142,18.0,22.0,73,0.00,,,0.00,weatherlink.com 1.10,2013-08-01 01:27:00,
2013-07-31 16:42:00,64.3,55.0,30.13,NNE,18,5.0,16.0,73,0.00,,,0.00,weatherlink.com 1.10,2013-08-01 01:42:00,
2013-07-31 16:57:00,64.3,55.0,30.13,SSE,156,12.0,20.0,73,0.00,,,0.00,weatherlink.com 1.10,2013-08-01 01:57:00,
2013-07-31 17:12:00,64.5,56.0,30.12,East,83,6.0,15.0,73,0.00,,,0.00,weatherlink.com 1.10,2013-08-01 02:12:00,
2013-07-31 17:27:00,63.2,55.0,30.12,SSE,157,12.0,18.0,75,0.00,,,0.00,weatherlink.com 1.10,2013-08-01 02:27:00,
2013-07-31 17:42:00,63.1,55.0,30.11,ESE,118,7.0,20.0,76,0.00,,,0.00,weatherlink.com 1.10,2013-08-01 02:42:00,
2013-07-31 17:57:00,63.3,55.0,30.11,ESE,123,9.0,18.0,75,0.00,,,0.00,weatherlink.com 1.10,2013-08-01 02:57:00,
2013-07-31 18:12:00,62.0,55.0,30.11,ESE,121,10.0,19.0,78,0.00,,,0.00,weatherlink.com 1.10,2013-08-01 03:12:00,
2013-07-31 18:27:00,61.5,55.0,30.11,SE,144,14.0,18.0,79,0.00,,,0.00,weatherlink.com 1.10,2013-08-01 03:27:00,
2013-07-31 18:42:00,61.4,55.0,30.11,SE,134,10.0,18.0,79,0.00,,,0.00,weatherlink.com 1.10,2013-08-01 03:42:00,
2013-07-31 18:57:00,62.3,56.0,30.11,East,96,8.0,13.0,79,0.00,,,0.00,weatherlink.com 1.10,2013-08-01 03:57:00,
2013-07-31 19:12:00,62.0,55.0,30.11,ESE,119,9.0,13.0,79,0.00,,,0.00,weatherlink.com 1.10,2013-08-01 04:12:00,
2013-07-31 19:27:00,61.6,55.0,30.10,ESE,108,4.0,13.0,80,0.00,,,0.00,weatherlink.com 1.10,2013-08-01 04:27:00,
2013-07-31 19:42:00,61.0,55.0,30.10,SE,124,10.0,12.0,81,0.00,,,0.00,weatherlink.com 1.10,2013-08-01 04:42:00,
2013-07-31 19:57:00,60.7,55.0,30.10,ESE,109,9.0,12.0,82,0.00,,,0.00,weatherlink.com 1.10,2013-08-01 04:57:00,
2013-07-31 20:12:00,60.4,55.0,30.10,East,101,6.0,12.0,82,0.00,,,0.00,weatherlink.com 1.10,2013-08-01 05:12:00,
2013-07-31 20:28:00,60.2,55.0,30.09,ESE,107,7.0,14.0,83,0.00,,,0.00,weatherlink.com 1.10,2013-08-01 05:28:00,
2013-07-31 20:43:00,60.1,55.0,30.10,ESE,112,10.0,11.0,83,0.00,,,0.00,weatherlink.com 1.10,2013-08-01 05:43:00,
2013-07-31 20:58:00,59.9,55.0,30.10,SE,129,5.0,9.0,83,0.00,,,0.00,weatherlink.com 1.10,2013-08-01 05:58:00,
2013-07-31 21:13:00,59.3,55.0,30.10,SE,132,6.0,14.0,84,0.00,,,0.00,weatherlink.com 1.10,2013-08-01 06:13:00,
2013-07-31 21:28:00,58.8,54.0,30.10,ESE,120,6.0,11.0,85,0.00,,,0.00,weatherlink.com 1.10,2013-08-01 06:28:00,
2013-07-31 21:43:00,58.5,54.0,30.10,SE,128,5.0,10.0,86,0.00,,,0.00,weatherlink.com 1.10,2013-08-01 06:43:00,
2013-07-31 21:58:00,58.3,54.0,30.11,East,93,6.0,12.0,86,0.00,,,0.00,weatherlink.com 1.10,2013-08-01 06:58:00,
2013-07-31 22:13:00,58.1,54.0,30.10,SE,125,9.0,11.0,87,0.00,,,0.00,weatherlink.com 1.10,2013-08-01 07:13:00,
2013-07-31 22:28:00,58.0,54.0,30.10,ESE,121,6.0,9.0,87,0.00,,,0.00,weatherlink.com 1.10,2013-08-01 07:28:00,
2013-07-31 22:43:00,58.2,54.0,30.10,ESE,103,5.0,10.0,87,0.00,,,0.00,weatherlink.com 1.10,2013-08-01 07:43:00,
2013-07-31 22:58:00,58.2,54.0,30.10,SE,132,8.0,12.0,87,0.00,,,0.00,weatherlink.com 1.10,2013-08-01 07:58:00,
2013-07-31 23:13:00,58.1,54.0,30.09,SE,125,4.0,11.0,87,0.00,,,0.00,weatherlink.com 1.10,2013-08-01 08:13:00,
2013-07-31 23:28:00,57.9,54.0,30.09,ESE,122,5.0,9.0,88,0.00,,,0.00,weatherlink.com 1.10,2013-08-01 08:28:00,
2013-07-31 23:58:00,57.9,54.0,30.09,ESE,123,5.0,10.0,88,0.00,,,0.00,weatherlink.com 1.10,2013-08-01 08:58:00,